Weather History for Ardmore Downtown, OK

Change the Weather History Date:

Friday, February 15, 2013

  Actual Average (KADM) Record (KADM)
Temperature  
Mean Temperature 41 °F -  
Max Temperature 50 °F 55 °F 80 °F (2000)
Min Temperature 32 °F 37 °F 19 °F (2007)
Degree Days  
Heating Degree Days 24    
Moisture  
Dew Point 23 °F    
Average Humidity 48    
Maximum Humidity 70    
Minimum Humidity 29    
Precipitation  
Precipitation 0.00 in - - ()
Sea Level Pressure  
Sea Level Pressure 30.33 in    
Wind  
Wind Speed 10 mph (NNE)    
Max Wind Speed 22 mph    
Max Gust Speed 28 mph    
Visibility 10 miles    
Events Rain    
Averages and records for this station are not official NWS values.
T = Trace of Precipitation, MM = Missing Value Source: NWS Daily Summary

Daily Weather History Graph

Daily Weather History Graph

Search for Another Location

Airport:

Trip Planner

Search our weather history database for the weather conditions in past years. The results will help you decide how hot, cold, wet, or windy it might be!

Date:

Astronomy

Feb. 15, 2013 Rise Set
Actual Time 7:13 AM CST 6:12 PM CST
Civil Twilight 6:47 AM CST 6:38 PM CST
Nautical Twilight 6:18 AM CST 7:07 PM CST
Astronomical Twilight 5:48 AM CST 7:36 PM CST
Moon 10:07 AM CST (2/15) 11:55 PM CST (2/15)
Length of Visible Light 11h 50m
Length of Day
10h 59m
Waxing Crescent, 30% of the Moon is Illuminated
Feb 15
Waxing Crescent
Feb 17
First Quarter
Feb 25
Full
Mar 4
Last Quarter
Mar 11
New

Hourly Weather History & Observations

Time (CST) Temp. Windchill Dew Point Humidity Pressure Visibility Wind Dir Wind Speed Gust Speed Precip Events Conditions
12:15 AM 50.0 °F - 32.0 °F 50% 30.19 in 10.0 mi NE 18.4 mph 21.9 mph N/A   Overcast
12:35 AM 50.0 °F - 32.0 °F 50% 30.20 in 10.0 mi NNE 13.8 mph 21.9 mph N/A   Overcast
12:55 AM 50.0 °F - 32.0 °F 50% 30.21 in 10.0 mi NE 13.8 mph - N/A   Overcast
1:15 AM 50.0 °F - 32.0 °F 50% 30.21 in 10.0 mi NNE 21.9 mph 27.6 mph N/A   Overcast
1:35 AM 48.2 °F - 32.0 °F 54% 30.22 in 10.0 mi NNE 13.8 mph 23.0 mph N/A   Overcast
1:55 AM 46.4 °F 41.1 °F 33.8 °F 62% 30.23 in 10.0 mi NNE 11.5 mph 23.0 mph N/A   Overcast
2:15 AM 46.4 °F 40.1 °F 33.8 °F 62% 30.23 in 10.0 mi NE 15.0 mph 25.3 mph N/A   Overcast
2:35 AM 44.6 °F 38.1 °F 33.8 °F 66% 30.24 in 10.0 mi NNE 13.8 mph - N/A   Overcast
2:55 AM 44.6 °F 37.2 °F 33.8 °F 66% 30.24 in 10.0 mi NE 17.3 mph 24.2 mph N/A   Overcast
3:15 AM 44.6 °F 37.4 °F 33.8 °F 66% 30.24 in 10.0 mi NNE 16.1 mph 21.9 mph N/A   Overcast
3:35 AM 44.6 °F 37.4 °F 32.0 °F 61% 30.24 in 10.0 mi NNE 16.1 mph 25.3 mph N/A   Overcast
3:55 AM 44.6 °F 40.2 °F 32.0 °F 61% 30.26 in 10.0 mi NNE 8.1 mph 12.7 mph N/A Rain Light Rain
4:15 AM 44.6 °F 41.4 °F 33.8 °F 66% 30.27 in 10.0 mi North 5.8 mph - N/A Rain Light Rain
4:35 AM 44.6 °F 40.7 °F 33.8 °F 66% 30.27 in 10.0 mi NNE 6.9 mph - N/A   Overcast
4:55 AM 44.6 °F 39.7 °F 33.8 °F 66% 30.28 in 10.0 mi NNE 9.2 mph - N/A   Overcast
5:15 AM 42.8 °F 36.6 °F 33.8 °F 70% 30.27 in 10.0 mi NNE 11.5 mph - N/A   Overcast
5:35 AM 42.8 °F 38.0 °F 32.0 °F 66% 30.29 in 10.0 mi North 8.1 mph - N/A   Overcast
5:55 AM 42.8 °F 37.0 °F 32.0 °F 66% 30.30 in 10.0 mi NNE 10.4 mph 16.1 mph N/A   Overcast
6:15 AM 42.8 °F 37.0 °F 30.2 °F 61% 30.30 in 10.0 mi NNE 10.4 mph 17.3 mph N/A   Overcast
6:35 AM 41.0 °F 34.7 °F 28.4 °F 61% 30.32 in 10.0 mi NNE 10.4 mph - N/A   Overcast
6:55 AM 41.0 °F 34.7 °F 24.8 °F 53% 30.32 in 10.0 mi NNE 10.4 mph 18.4 mph N/A   Overcast
7:15 AM 41.0 °F 36.4 °F 26.6 °F 57% 30.32 in 10.0 mi NNE 6.9 mph - N/A   Overcast
7:35 AM 39.2 °F 35.9 °F 26.6 °F 61% 30.33 in 10.0 mi NNE 4.6 mph 16.1 mph N/A   Mostly Cloudy
7:55 AM 37.4 °F 32.8 °F 26.6 °F 65% 30.34 in 10.0 mi NNE 5.8 mph - N/A   Mostly Cloudy
8:15 AM 37.4 °F 32.1 °F 26.6 °F 65% 30.35 in 10.0 mi North 6.9 mph - N/A   Overcast
8:35 AM 37.4 °F 30.8 °F 26.6 °F 65% 30.36 in 10.0 mi North 9.2 mph - N/A   Mostly Cloudy
8:55 AM 37.4 °F 30.3 °F 24.8 °F 60% 30.37 in 10.0 mi NNE 10.4 mph 17.3 mph N/A   Scattered Clouds
9:15 AM 37.4 °F 30.3 °F 23.0 °F 56% 30.38 in 10.0 mi NNE 10.4 mph 16.1 mph N/A   Clear
9:35 AM 39.2 °F 32.5 °F 23.0 °F 52% 30.38 in 10.0 mi NNE 10.4 mph - N/A   Mostly Cloudy
9:55 AM 39.2 °F 33.0 °F 23.0 °F 52% 30.39 in 10.0 mi NNE 9.2 mph - N/A   Overcast
10:15 AM 41.0 °F 34.7 °F 23.0 °F 49% 30.39 in 10.0 mi NNE 10.4 mph - N/A   Mostly Cloudy
10:35 AM 41.0 °F 34.7 °F 23.0 °F 49% 30.39 in 10.0 mi NNE 10.4 mph - N/A   Scattered Clouds
10:55 AM 42.8 °F 35.8 °F 19.4 °F 39% 30.39 in 10.0 mi NE 13.8 mph 17.3 mph N/A   Mostly Cloudy
11:15 AM 42.8 °F 36.6 °F 17.6 °F 36% 30.39 in 10.0 mi NNE 11.5 mph 17.3 mph N/A   Scattered Clouds
11:35 AM 44.6 °F 40.2 °F 19.4 °F 37% 30.39 in 10.0 mi NNE 8.1 mph 16.1 mph N/A   Scattered Clouds
11:55 AM 44.6 °F 38.8 °F 17.6 °F 34% 30.39 in 10.0 mi NNE 11.5 mph 19.6 mph N/A   Scattered Clouds
12:15 PM 44.6 °F 38.8 °F 17.6 °F 34% 30.39 in 10.0 mi NNE 11.5 mph - N/A   Scattered Clouds
12:35 PM 44.6 °F 39.2 °F 17.6 °F 34% 30.38 in 10.0 mi NNE 10.4 mph 16.1 mph N/A   Scattered Clouds
12:55 PM 44.6 °F 41.4 °F 17.6 °F 34% 30.37 in 10.0 mi North 5.8 mph - N/A   Scattered Clouds
1:15 PM 44.6 °F 39.2 °F 19.4 °F 37% 30.37 in 10.0 mi NNE 10.4 mph - N/A   Scattered Clouds
1:35 PM 44.6 °F 39.7 °F 19.4 °F 37% 30.36 in 10.0 mi North 9.2 mph - N/A   Clear
1:55 PM 44.6 °F 40.2 °F 17.6 °F 34% 30.35 in 10.0 mi NNE 8.1 mph - N/A   Clear
2:15 PM 44.6 °F 40.7 °F 17.6 °F 34% 30.34 in 10.0 mi NNW 6.9 mph - N/A   Clear
2:35 PM 44.6 °F 40.7 °F 17.6 °F 34% 30.34 in 10.0 mi NNW 6.9 mph - N/A   Clear
2:55 PM 44.6 °F 40.7 °F 14.0 °F 29% 30.34 in 10.0 mi North 6.9 mph 16.1 mph N/A   Scattered Clouds
3:15 PM 46.4 °F 42.9 °F 17.6 °F 32% 30.34 in 10.0 mi NNE 6.9 mph 18.4 mph N/A   Scattered Clouds
3:35 PM 44.6 °F 42.2 °F 15.8 °F 31% 30.34 in 10.0 mi North 4.6 mph - N/A   Clear
3:55 PM 46.4 °F 42.9 °F 17.6 °F 32% 30.34 in 10.0 mi North 6.9 mph - N/A   Scattered Clouds
4:15 PM 44.6 °F 40.7 °F 17.6 °F 34% 30.34 in 10.0 mi NNE 6.9 mph - N/A   Mostly Cloudy
4:35 PM 44.6 °F 41.4 °F 14.0 °F 29% 30.34 in 10.0 mi NNE 5.8 mph 19.6 mph N/A   Scattered Clouds
4:55 PM 44.6 °F 38.8 °F 15.8 °F 31% 30.34 in 10.0 mi NNE 11.5 mph 17.3 mph N/A   Clear
5:15 PM 44.6 °F 40.2 °F 14.0 °F 29% 30.35 in 10.0 mi North 8.1 mph - N/A   Clear
5:35 PM 44.6 °F 40.7 °F 14.0 °F 29% 30.35 in 10.0 mi North 6.9 mph - N/A   Clear
5:55 PM 42.8 °F - 15.8 °F 34% 30.35 in 10.0 mi Calm Calm - N/A   Clear
6:15 PM 42.8 °F 41.1 °F 17.6 °F 36% 30.35 in 10.0 mi NNW 3.5 mph - N/A   Clear
6:35 PM 42.8 °F - 15.8 °F 34% 30.35 in 10.0 mi Calm Calm - N/A   Clear
6:55 PM 41.0 °F - 15.8 °F 36% 30.35 in 10.0 mi Calm Calm - N/A   Clear
7:15 PM 41.0 °F 39.0 °F 15.8 °F 36% 30.35 in 10.0 mi NNW 3.5 mph - N/A   Clear
7:35 PM 41.0 °F 39.0 °F 15.8 °F 36% 30.36 in 10.0 mi North 3.5 mph - N/A   Clear
7:55 PM 39.2 °F 37.0 °F 15.8 °F 39% 30.37 in 10.0 mi NNW 3.5 mph - N/A   Clear
8:15 PM 39.2 °F 37.0 °F 17.6 °F 42% 30.37 in 10.0 mi NNW 3.5 mph - N/A   Clear
8:35 PM 37.4 °F - 17.6 °F 45% 30.38 in 10.0 mi Calm Calm - N/A   Clear
8:55 PM 37.4 °F 34.9 °F 17.6 °F 45% 30.37 in 10.0 mi NNW 3.5 mph - N/A   Clear
9:15 PM 35.6 °F - 17.6 °F 48% 30.37 in 10.0 mi Calm Calm - N/A   Clear
9:35 PM 35.6 °F - 19.4 °F 52% 30.37 in 10.0 mi Calm Calm - N/A   Clear
9:55 PM 33.8 °F - 19.4 °F 56% 30.37 in 10.0 mi Calm Calm - N/A   Clear
10:15 PM 33.8 °F - 19.4 °F 56% 30.37 in 10.0 mi Calm Calm - N/A   Clear
10:35 PM 32.0 °F 28.7 °F 19.4 °F 60% 30.38 in 10.0 mi NW 3.5 mph - N/A   Clear
10:55 PM 33.8 °F - 19.4 °F 56% 30.38 in 10.0 mi Calm Calm - N/A   Scattered Clouds
11:15 PM 32.0 °F - 19.4 °F 60% 30.37 in 10.0 mi Calm Calm - N/A   Scattered Clouds
11:35 PM 33.8 °F - 19.4 °F 56% 30.37 in 10.0 mi Calm Calm - N/A   Mostly Cloudy
11:55 PM 33.8 °F - 21.2 °F 60% 30.38 in 10.0 mi Calm Calm - N/A   Overcast